St. Marys, AK

3:49 AM AKST on November 13, 2019 (GMT -0900)
Saint Mary's

Weather History for PASM - September, 2019

Change the Weather History Date:

Sunday, September 29, 2019

  Actual Average Record
Temperature  
Mean Temperature 44 °F -  
Max Temperature 41 °F 40 °F 52 °F (2018)
Min Temperature 41 °F 30 °F 26 °F (1998)
Degree Days  
Heating Degree Days 21    
Moisture  
Dew Point 45 °F    
Average Humidity 97    
Maximum Humidity 100    
Minimum Humidity 86    
Precipitation  
Precipitation 0.25 in - - ()
Sea Level Pressure  
Sea Level Pressure 29.56 in    
Wind  
Wind Speed 3 mph ()    
Max Wind Speed 17 mph    
Max Gust Speed 23 mph    
Visibility 4.1 miles    
Events Fog , Rain    
Averages and records for this station are not official NWS values.
T = Trace of Precipitation, MM = Missing Value Source: Averaged Metar Reports

Daily Weather History Graph

Daily Weather History Graph

Search for Another Location

Airport or City:

Astronomy

Sep. 29, 2019 Rise Set
Actual Time 8:55 AM AKDT 8:30 PM AKDT
Civil Twilight 8:10 AM AKDT 9:14 PM AKDT
Nautical Twilight 7:18 AM AKDT 10:06 PM AKDT
Astronomical Twilight 6:21 AM AKDT 11:02 PM AKDT
Moon 10:08 AM AKDT (9/29) 9:20 PM AKDT (9/29)
Length of Visible Light 13h 03m
Length of Day
11h 35m
New Moon, 2% of the Moon is Illuminated
Sep 29
New Moon
Oct 5
First Quarter
Oct 13
Full
Oct 21
Last Quarter
Oct 27
New

Hourly Weather History & Observations

Time (AKDT) Temp. Windchill Dew Point Humidity Pressure Visibility Wind Dir Wind Speed Gust Speed Precip Events Conditions
12:02 AM 46.0 °F - 46.0 °F 100% 29.57 in 10.0 mi Calm Calm - 0.01 in   Overcast
1:02 AM 46.0 °F - 46.0 °F 100% 29.55 in 1.8 mi Calm Calm - 0.00 in Rain Light Rain
1:16 AM 46.4 °F 45.2 °F 46.4 °F 100% 29.53 in 0.8 mi NE 3.5 mph - 0.00 in   Overcast
1:43 AM 46.4 °F - 46.4 °F 100% 29.53 in 0.8 mi Calm Calm - 0.00 in   Overcast
1:51 AM 46.4 °F - 46.4 °F 100% 29.53 in 1.0 mi Calm Calm - 0.00 in   Overcast
2:02 AM 46.4 °F - 46.4 °F 100% 29.53 in 1.0 mi Calm Calm - 0.00 in   Overcast
2:08 AM 46.0 °F - 46.0 °F 100% 29.55 in 1.0 mi Calm Calm - 0.00 in Rain Light Rain
2:18 AM 46.4 °F - 46.4 °F 100% 29.53 in 1.2 mi Calm Calm - 0.01 in Rain Light Rain
2:28 AM 46.4 °F - 46.4 °F 100% 29.53 in 0.8 mi Calm Calm - 0.01 in Rain Light Rain
2:40 AM 46.4 °F - 46.4 °F 100% 29.52 in 1.0 mi Calm Calm - 0.01 in Rain Light Rain
2:48 AM 46.4 °F - 46.4 °F 100% 29.52 in 0.5 mi Calm Calm - 0.01 in Fog , Rain Light Rain
3:02 AM 46.0 °F - 46.0 °F 100% 29.54 in 0.5 mi Calm Calm - 0.01 in Fog , Rain Light Rain
3:20 AM 46.4 °F 45.2 °F 46.4 °F 100% 29.51 in 0.5 mi NW 3.5 mph - 0.00 in Fog Fog
3:36 AM 46.4 °F - 46.4 °F 100% 29.51 in 0.2 mi Calm Calm - 0.01 in Fog Fog
3:55 AM 46.4 °F - 46.4 °F 100% 29.51 in 0.5 mi Calm Calm - 0.01 in Fog Fog
4:02 AM 46.0 °F - 46.0 °F 100% 29.53 in 0.5 mi Calm Calm - 0.01 in Fog Fog
4:20 AM 46.4 °F - 46.4 °F 100% 29.50 in 0.5 mi Calm Calm - N/A Fog Fog
5:02 AM 46.0 °F - 46.0 °F 100% 29.53 in 0.5 mi Calm Calm - N/A Fog Fog
5:10 AM 46.4 °F - 46.4 °F 100% 29.51 in 1.0 mi Calm Calm - N/A   Overcast
5:19 AM 46.4 °F - 46.4 °F 100% 29.51 in 1.2 mi Calm Calm - 0.00 in Rain Light Rain
5:34 AM 46.4 °F - 46.4 °F 100% 29.51 in 2.0 mi Calm Calm - 0.00 in   Overcast
5:42 AM 46.4 °F - 46.4 °F 100% 29.51 in 1.2 mi Calm Calm - 0.00 in   Overcast
5:50 AM 46.4 °F - 46.4 °F 100% 29.51 in 1.0 mi Calm Calm - 0.00 in   Overcast
5:57 AM 46.4 °F - 46.4 °F 100% 29.50 in 0.8 mi Calm Calm - 0.00 in   Overcast
6:02 AM 46.4 °F - 46.4 °F 100% 29.50 in 0.5 mi Calm Calm - 0.00 in Fog Fog
6:09 AM 46.4 °F - 46.4 °F 100% 29.50 in 0.8 mi Calm Calm - 0.00 in   Overcast
6:30 AM 46.4 °F - 46.4 °F 100% 29.50 in 0.5 mi Calm Calm - 0.00 in Fog Fog
6:52 AM 46.4 °F - 46.4 °F 100% 29.49 in 0.2 mi Calm Calm - 0.01 in Fog Fog
7:02 AM 46.0 °F 44.8 °F 46.0 °F 100% 29.52 in 0.2 mi SW 3.5 mph - 0.01 in Fog Fog
8:02 AM 46.0 °F - 46.0 °F 100% 29.52 in 0.2 mi Calm Calm - 0.00 in Fog , Rain Light Rain
8:36 AM 46.4 °F - 44.6 °F 93% 29.49 in 0.2 mi Calm Calm - 0.00 in Fog , Rain Light Rain
8:45 AM 44.6 °F - 44.6 °F 100% 29.49 in 0.2 mi Calm Calm - 0.00 in Fog Fog
9:02 AM 45.0 °F - 45.0 °F 100% 29.52 in 0.2 mi Calm Calm - 0.00 in Fog Fog
9:10 AM 44.6 °F - 44.6 °F 100% 29.49 in 0.2 mi Calm Calm - N/A Fog Fog
9:17 AM 44.6 °F - 44.6 °F 100% 29.49 in 1.5 mi Calm Calm - N/A   Overcast
9:19 AM 44.6 °F - 44.6 °F 100% 29.49 in 2.5 mi Calm Calm - N/A   Overcast
9:23 AM 44.6 °F 43.1 °F 44.6 °F 100% 29.49 in 5.0 mi South 3.5 mph - N/A   Overcast
9:27 AM 44.6 °F 42.2 °F 44.6 °F 100% 29.49 in 1.0 mi South 4.6 mph - N/A   Overcast
9:29 AM 44.6 °F 41.4 °F 44.6 °F 100% 29.50 in 0.5 mi South 5.8 mph - N/A Fog Fog
9:36 AM 46.4 °F 43.5 °F 46.4 °F 100% 29.50 in 0.2 mi South 5.8 mph - 0.02 in Fog , Rain Rain
9:50 AM 46.4 °F 44.3 °F 46.4 °F 100% 29.50 in 0.5 mi SW 4.6 mph - 0.05 in Fog , Rain Rain
10:02 AM 46.4 °F 43.5 °F 46.4 °F 100% 29.50 in 0.8 mi WSW 5.8 mph - 0.07 in Rain Light Rain
10:13 AM 46.4 °F 43.5 °F 44.6 °F 93% 29.50 in 1.0 mi SW 5.8 mph - 0.08 in Rain Light Rain
10:20 AM 46.4 °F 43.5 °F 44.6 °F 93% 29.50 in 0.5 mi SW 5.8 mph - 0.08 in Fog , Rain Light Rain
10:34 AM 46.4 °F 43.5 °F 46.4 °F 100% 29.50 in 0.5 mi SW 5.8 mph - 0.09 in Fog , Rain Light Rain
10:41 AM 46.4 °F 42.9 °F 46.4 °F 100% 29.50 in 1.0 mi SW 6.9 mph - 0.10 in Rain Light Rain
10:57 AM 46.4 °F 42.4 °F 44.6 °F 93% 29.50 in 0.8 mi West 8.1 mph - 0.12 in Rain Light Rain
11:02 AM 46.4 °F 42.4 °F 44.6 °F 93% 29.50 in 0.5 mi West 8.1 mph - 0.12 in Fog , Rain Light Rain
11:11 AM 44.6 °F 39.2 °F 44.6 °F 100% 29.50 in 1.5 mi West 10.4 mph - 0.12 in Rain Light Rain
11:18 AM 44.6 °F 39.7 °F 44.6 °F 100% 29.51 in 10.0 mi WSW 9.2 mph - 0.12 in Rain Light Rain
11:42 AM 46.4 °F 40.4 °F 46.4 °F 100% 29.51 in 7.0 mi West 13.8 mph - 0.14 in Rain Light Rain
12:02 PM 45.0 °F 38.5 °F 45.0 °F 100% 29.54 in 5.0 mi WNW 13.8 mph - 0.14 in Rain Light Rain
12:27 PM 44.6 °F 38.4 °F 42.8 °F 93% 29.54 in 6.0 mi West 12.7 mph - 0.00 in Rain Light Rain
12:47 PM 44.6 °F 38.4 °F 42.8 °F 93% 29.55 in 9.0 mi West 12.7 mph - 0.02 in Rain Light Rain
12:59 PM 44.6 °F 38.4 °F 44.6 °F 100% 29.56 in 10.0 mi West 12.7 mph - 0.03 in Rain Light Rain
1:02 PM 44.1 °F 37.4 °F 44.1 °F 100% 29.58 in 10.0 mi West 13.8 mph - 0.03 in Rain Light Rain
1:25 PM 44.6 °F 38.8 °F 44.6 °F 100% 29.58 in 10.0 mi WSW 11.5 mph - 0.00 in   Overcast
2:02 PM 45.0 °F 37.9 °F 44.1 °F 97% 29.62 in 10.0 mi WSW 16.1 mph - 0.00 in Rain Light Rain
2:31 PM 46.4 °F 39.5 °F 42.8 °F 87% 29.61 in 10.0 mi WSW 17.3 mph 23.0 mph 0.01 in   Mostly Cloudy
3:02 PM 46.0 °F 39.9 °F 43.0 °F 89% 29.64 in 10.0 mi SW 13.8 mph - 0.01 in   Overcast
3:10 PM 46.4 °F 39.8 °F 42.8 °F 87% 29.62 in 10.0 mi WSW 16.1 mph 23.0 mph N/A   Overcast
3:19 PM 46.4 °F 40.1 °F 42.8 °F 87% 29.63 in 10.0 mi SW 15.0 mph - N/A   Overcast
3:38 PM 46.4 °F 40.1 °F 42.8 °F 87% 29.63 in 10.0 mi SW 15.0 mph - N/A   Overcast
4:02 PM 46.9 °F - 43.0 °F 86% 29.65 in 10.0 mi SW 12.7 mph - N/A   Overcast
4:17 PM 46.4 °F 40.7 °F 42.8 °F 87% 29.63 in 8.0 mi SW 12.7 mph - 0.00 in Rain Light Rain
4:46 PM 46.4 °F 40.7 °F 42.8 °F 87% 29.64 in 10.0 mi SW 12.7 mph - 0.01 in Rain Light Rain
5:02 PM 46.0 °F 39.9 °F 44.1 °F 93% 29.67 in 10.0 mi SW 13.8 mph - 0.01 in   Mostly Cloudy
6:02 PM 46.0 °F 40.2 °F 43.0 °F 89% 29.68 in 10.0 mi SW 12.7 mph - 0.01 in Rain Light Rain
7:02 PM 45.0 °F 38.5 °F 42.1 °F 90% 29.70 in 9.0 mi SW 13.8 mph - 0.00 in Rain Light Rain
7:34 PM 44.6 °F 39.2 °F 42.8 °F 93% 29.69 in 10.0 mi SW 10.4 mph - 0.02 in Rain Light Rain
7:42 PM 44.6 °F 39.7 °F 42.8 °F 93% 29.69 in 10.0 mi SW 9.2 mph - 0.02 in   Mostly Cloudy
8:02 PM 44.1 °F 39.0 °F 42.1 °F 93% 29.72 in 10.0 mi SW 9.2 mph - 0.02 in   Overcast
8:45 PM 42.8 °F 38.6 °F 42.8 °F 100% 29.71 in 10.0 mi SSW 6.9 mph - 0.00 in   Mostly Cloudy
8:54 PM 42.8 °F 37.5 °F 42.8 °F 100% 29.71 in 10.0 mi SSW 9.2 mph - 0.00 in   Overcast
9:02 PM 43.0 °F 37.7 °F 41.0 °F 93% 29.74 in 10.0 mi SSW 9.2 mph - 0.00 in   Mostly Cloudy
10:02 PM 42.1 °F 35.7 °F 41.0 °F 96% 29.75 in 10.0 mi SSW 11.5 mph - N/A   Mostly Cloudy
11:02 PM 41.0 °F 34.7 °F 39.9 °F 96% 29.76 in 10.0 mi SSW 10.4 mph - N/A   Partly Cloudy